Location: Mascot Post Office (historical)
(40.2645°N, 99.5462°W)
Time: 17:18:00
(UTC+00:00)

Aureole 1 Rocket - Pass Details

Date: 14 July 2020
Orbit: 377 x 1380 km, 73.9° (Epoch: 05 August)

Event Time Altitude Azimuth Distance (km) Brightness Sun altitude
Exits shadow 09:16:18 29° 258° (WSW) 1,248 4.2 -18.7°
Maximum altitude 09:17:55 38° 299° (WNW) 1,120 4.3 -18.5°
Drops below altitude 10° 09:23:19 10° 7° (N) 2,586 7.1 -17.9°
Sets 09:26:23 0° 15° (NNE) 3,718 8.2 -17.5°
